{"data":{"norad_id":60188,"epoch":"2026-09-20T08:32:57.414912Z","epoch_age_seconds":193987,"freshness":"STALE","line1":"1 60188U 24124F   26263.35622008  .00001523  00000+0  17426-4 0  9995","line2":"2 60188  53.1585 281.9890 0001190  84.5596 275.5558 15.69713691127103","mean_motion":15.69713691,"eccentricity":0.000119,"inclination_deg":53.1585,"raan_deg":281.989,"arg_perigee_deg":84.5596,"mean_anomaly_deg":275.5558,"bstar":1.7426e-5,"rev_number":12710,"period_min":91.736474508459,"perigee_km":358.91438368192,"apogee_km":360.51799274071,"semimajor_km":6737.8531882113,"source":"CELESTRAK","updated_at":"2026-09-22T09:00:49.182629Z"}}